Flag for Germany Weather past 2 weeks in Marburg, Hesse, Germany

Now
48 °F

Fog.


Feels Like: 48 °F
Forecast: 43 / 53 °F
Wind: 1 mph from Southeast

Location: Giessen

Current Time: Oct 24, 2014 at 1:47:34 PM

Latest Report: Oct 24, 2014 at 1:00 PM


Visibility: 3 mi

Pressure: 30.22 "Hg

Humidity: 90%

Dew point: 46 °F

Location of MarburgLocation

Historic Weather in Marburg — Graph

°F

Marburg temperature yesterday

Maximum temperature yesterday: 53 °F (at 5:00 PM)
Minimum temperature yesterday: 46 °F (at 2:00 AM)
Average temperature yesterday: 49 °F

Past Weeks' High & Low Weather Summary

 TemperatureHumidityPressure
High70 °F (Oct 19, 4:00 PM)100% (Oct 12, 5:00 AM)30.26 "Hg (Oct 12, 5:00 AM)
Low42 °F (Oct 22, 3:00 AM)61% (Oct 15, 4:00 PM)29.50 "Hg (Oct 21, 6:00 PM)
Average54 °F92%29.95 "Hg
* Reported Oct 9 12:00 Noon — Oct 24 12:00 Noon, Marburg, Weather by CustomWeather, © 2014

Note: Actual official high and low records may vary slightly from our data, if they occured in-between our weather recording intervals... More about our weather records

Advertising

Marburg weather history for previous 24 hours

 ConditionsComfort  
Time TempWeatherWind HumidityBarometerVisibility
12:00 PM
Oct 24
46 °FFog.1 mph97%30.23 "Hg3 mi
11:00 AM44 °FFog.2 mph99%30.24 "Hg2 mi
10:00 AM43 °FQuite cool.1 mph100%30.24 "Hg1 mi
9:00 AM43 °FDuststorm.2 mph100%30.24 "Hg1 mi
8:00 AM44 °FQuite cool.3 mph100%30.24 "Hg1 mi
7:00 AM44 °FDuststorm.2 mph100%30.24 "Hg0 mi
6:00 AM44 °FDuststorm.2 mph100%30.23 "Hg0 mi
5:00 AM44 °FDuststorm.2 mph99%30.24 "Hg1 mi
4:00 AM45 °FFog.2 mph98%30.25 "Hg2 mi
3:00 AM46 °FFog.1 mph97%30.25 "Hg3 mi
2:00 AM47 °FFog.1 mph96%30.25 "Hg4 mi
1:00 AM48 °FCool.1 mph94%30.25 "Hg6 mi
12:00 AM49 °FFog.1 mph94%30.24 "Hg4 mi
11:00 PM
Oct 23
49 °FCool.2 mph93%30.25 "HgN/A
10:00 PM49 °FCool.1 mph91%30.25 "Hg6 mi
9:00 PM49 °FCool.1 mph90%30.25 "Hg6 mi
8:00 PM50 °FCool.2 mph90%30.24 "HgN/A
7:00 PM49 °FCool.3 mph92%30.24 "HgN/A
6:00 PM51 °FCool.1 mph86%30.23 "Hg6 mi
5:00 PM53 °FCool.2 mph80%30.23 "Hg7 mi
4:00 PM52 °FCool.3 mph82%30.24 "Hg6 mi
3:00 PM51 °FCool.3 mph85%30.24 "Hg6 mi
2:00 PM51 °FCool.5 mph85%30.25 "Hg9 mi
1:00 PM50 °FCool.5 mph87%30.26 "Hg9 mi
Weather by CustomWeather, © 2014

See weather overviewHow to use our weather pages